Ellensburg, WA

11:11 AM PDT on September 27, 2016 (GMT -0700)
Bowers

Weather History for KELN - March, 2013

Change the Weather History Date:

Saturday, March 30, 2013

  Actual Average (KYKM) Record (KYKM)
Temperature  
Mean Temperature 52 °F 46 °F  
Max Temperature 71 °F 60 °F 78 °F (2003)
Min Temperature 33 °F 32 °F 18 °F (1954)
Degree Days  
Heating Degree Days 14 19  
Month to date heating degree days 657  
Since 1 July heating degree days 5184  
Cooling Degree Days 0 0  
Month to date cooling degree days 0  
Year to date cooling degree days 0  
Growing Degree Days 2 (Base 50)    
Moisture  
Dew Point 34 °F    
Average Humidity 56    
Maximum Humidity 85    
Minimum Humidity 31    
Precipitation  
Precipitation 0.00 in 0.02 in 0.31 in (2012)
Month to date precipitation 0.61  
Year to date precipitation 2.53  
Snow  
Snow 0.00 in 0.00 in 0.10 in (1982)
Month to date snowfall 0.7  
Year to date snowfall 8.6  
Since 1 July snowfall 21.6  
Snow Depth -    
Sea Level Pressure  
Sea Level Pressure 30.21 in    
Wind  
Wind Speed 2 mph (East)    
Max Wind Speed 8 mph    
Max Gust Speed -    
Visibility 10 miles    
Events      
T = Trace of Precipitation, MM = Missing Value Source: NWS Daily Summary

Daily Weather History Graph

Daily Weather History Graph

Search for Another Location

Airport or City:

Trip Planner

Search our weather history database for the weather conditions in past years. The results will help you decide how hot, cold, wet, or windy it might be!

Date:

Astronomy

Mar. 30, 2013 Rise Set
Actual Time 6:44 AM PDT 7:29 PM PDT
Civil Twilight 6:13 AM PDT 8:00 PM PDT
Nautical Twilight 5:37 AM PDT 8:36 PM PDT
Astronomical Twilight 4:58 AM PDT 9:15 PM PDT
Moon 11:57 PM PDT (3/30) 8:29 AM PDT (3/30)
Length of Visible Light 13h 46m
Length of Day
12h 44m
Waning Gibbous, 85% of the Moon is Illuminated
Mar 30
Waning Gibbous
Apr 2
Last Quarter
Apr 10
New
Apr 18
First Quarter
Apr 25
Full

Hourly Weather History & Observations

Time (PDT) Temp. Windchill Dew Point Humidity Pressure Visibility Wind Dir Wind Speed Gust Speed Precip Events Conditions
12:53 AM 41.0 °F 39.0 °F 30.0 °F 65% 30.23 in 10.0 mi NE 3.5 mph - N/A   Clear
1:53 AM 37.0 °F - 30.0 °F 76% 30.24 in 10.0 mi Calm Calm - N/A   Clear
2:53 AM 37.0 °F 34.5 °F 30.0 °F 76% 30.25 in 10.0 mi East 3.5 mph - N/A   Clear
3:53 AM 34.0 °F - 27.0 °F 75% 30.25 in 10.0 mi Calm Calm - N/A   Clear
4:53 AM 34.0 °F - 28.0 °F 79% 30.25 in 10.0 mi Calm Calm - N/A   Clear
5:53 AM 33.1 °F 27.7 °F 28.9 °F 85% 30.26 in 10.0 mi East 5.8 mph - N/A   Clear
6:53 AM 33.1 °F 28.7 °F 28.0 °F 82% 30.27 in 10.0 mi NNE 4.6 mph - N/A   Clear
7:53 AM 39.0 °F - 32.0 °F 76% 30.29 in 10.0 mi Calm Calm - N/A   Clear
8:53 AM 45.0 °F - 34.0 °F 65% 30.29 in 10.0 mi Calm Calm - N/A   Clear
9:53 AM 50.0 °F - 36.0 °F 59% 30.29 in 10.0 mi Calm Calm - N/A   Clear
10:53 AM 54.0 °F - 35.1 °F 49% 30.27 in 10.0 mi Calm Calm - N/A   Clear
11:53 AM 59.0 °F - 36.0 °F 42% 30.25 in 10.0 mi Calm Calm - N/A   Clear
12:53 PM 64.9 °F - 37.0 °F 36% 30.24 in 10.0 mi SE 8.1 mph - N/A   Clear
1:53 PM 68.0 °F - 37.0 °F 32% 30.22 in 10.0 mi ESE 3.5 mph - N/A   Clear
2:53 PM 69.1 °F - 37.0 °F 31% 30.19 in 10.0 mi SSE 5.8 mph - N/A   Clear
3:53 PM 70.0 °F - 37.9 °F 31% 30.17 in 10.0 mi SE 4.6 mph - N/A   Clear
4:53 PM 69.1 °F - 37.0 °F 31% 30.15 in 10.0 mi Variable 4.6 mph - N/A   Clear
5:53 PM 68.0 °F - 36.0 °F 31% 30.13 in 10.0 mi SE 4.6 mph - N/A   Clear
6:53 PM 64.9 °F - 37.9 °F 37% 30.12 in 10.0 mi Calm Calm - N/A   Clear
7:53 PM 54.0 °F - 37.0 °F 53% 30.12 in 10.0 mi East 3.5 mph - N/A   Clear
8:53 PM 51.1 °F - 36.0 °F 56% 30.13 in 10.0 mi NE 5.8 mph - N/A   Clear
9:53 PM 48.0 °F - 35.1 °F 61% 30.13 in 10.0 mi Calm Calm - N/A   Clear
10:53 PM 46.9 °F - 34.0 °F 61% 30.12 in 10.0 mi Calm Calm - N/A   Clear
11:53 PM 46.9 °F - 34.0 °F 61% 30.12 in 10.0 mi Calm Calm - N/A   Clear